Location: Unspecified
(0.0000°N, 0.0000°E)
Time: 06:42:15
(UTC+02:00)

GPS 2-12 Rocket1 - Visible Passes

Search period start: 28 July 2017 00:00
Search period end: 07 August 2017 00:00
Orbit: 587 x 653 km, 20.0° (Epoch: 26 July)

Date Brightness Start Highest point End Pass type
(mag) Time Alt. Az. Time Alt. Az. Time Alt. Az.
28 Jul 5.6 05:44:02 17° NNE 05:44:02 17° NNE 05:45:38 10° NNE visible
29 Jul 5.6 05:59:10 14° N 05:59:10 14° N 06:00:58 10° NNE visible
03 Aug 4.9 21:11:47 10° SSW 21:14:12 14° SSE 21:14:19 14° SSE visible
04 Aug 4.5 21:27:06 10° SSW 21:29:54 21° S 21:29:54 21° S visible
05 Aug 4.2 21:42:47 10° SW 21:45:34 30° SSW 21:45:34 30° SSW visible
06 Aug 4.3 21:58:45 10° WSW 22:01:16 32° SW 22:01:16 32° SW visible
